User: anonymous   Login
Location: Napier
(39.4830°S, 176.9170°E)
Time: 03:10:41
(UTC+13:00)
Language:

Cosmos 1933 - Orbit

View from above orbital plane
View from above orbital plane
View from above satellite
View from above satellite

Ground track
Ground track

The orbit data is extracted from the following two-line orbital elements,

1 18958U 88020A   19289.30863679 -.00000002  00000-0 -22635-5 0  9997
2 18958  82.5325   2.3027 0010005 265.1512  94.8571 15.03639816719418
Epoch (UTC): 16 October 2019 07:24:26
Eccentricity: 0.0010005
inclination: 82.5325°
perigee height: 549 km
apogee height: 562 km
right ascension of ascending node: 2.3027°
argument of perigee: 265.1512°
revolutions per day: 15.03639816
mean anomaly at epoch: 94.8571°
orbit number at epoch: 71941

The dashed part of the orbit path shows where the satellite is in the earth's shadow,  

DLR